Back to catalog

NOAA 16 DEB

AliveSSO
NORAD 42429·DEBRIS·🇺🇸 United States

Launched Sep 21, 2000 from Vandenberg Space Force Base

Loading…

Next Passes (next 24 hours)

TLE

FreshSource: Space-Track

Epoch: Sep 12, 2026, 11:24 UTC

1 42429U 00055TZ  26255.47539662  .00004738  00000-0  15978-2 0  9997
2 42429  98.8288 344.0736 0022568 267.7937  92.0664 14.37331270518795

Track NOAA 16 DEB in real time with AllMySat

Download on the App Store